Weather History for Albion, NE

Change the Weather History Date:

Wednesday, August 28, 2013

  Actual Average (KOFK) Record (KOFK)
Temperature  
Mean Temperature 78 °F 71 °F  
Max Temperature 89 °F 83 °F 100 °F (1984)
Min Temperature 66 °F 59 °F 38 °F (1917)
Degree Days  
Heating Degree Days 0 1  
Month to date heating degree days 5  
Since 1 June heating degree days 39  
Since 1 July heating degree days 9  
Cooling Degree Days 12 7  
Month to date cooling degree days 238  
Year to date cooling degree days 799  
Since 1 June cooling degree days 738  
Growing Degree Days 28 (Base 50)    
Moisture  
Dew Point 66 °F    
Average Humidity 69    
Maximum Humidity 87    
Minimum Humidity 49    
Precipitation  
Precipitation 0.00 in 0.10 in 1.34 in (1960)
Month to date precipitation 2.97  
Year to date precipitation 20.25  
Snow  
Snow 0.00 in 0.00 in - ()
Month to date snowfall 0.0  
Since 1 July snowfall 0.0  
Snow Depth -    
Sea Level Pressure  
Sea Level Pressure 29.99 in    
Wind  
Wind Speed 4 mph (SSE)    
Max Wind Speed 14 mph    
Max Gust Speed 17 mph    
Visibility 10 miles    
Events      
T = Trace of Precipitation, MM = Missing Value Source: NWS Daily Summary

Daily Weather History Graph

Daily Weather History Graph

Search for Another Location

Airport:

Trip Planner

Search our weather history database for the weather conditions in past years. The results will help you decide how hot, cold, wet, or windy it might be!

Date:

Astronomy

Aug. 28, 2013 Rise Set
Actual Time 6:54 AM CDT 8:11 PM CDT
Civil Twilight 6:25 AM CDT 8:40 PM CDT
Nautical Twilight 5:50 AM CDT 9:14 PM CDT
Astronomical Twilight 5:14 AM CDT 9:51 PM CDT
Moon 12:01 AM CDT (8/28) 2:52 PM CDT (8/28)
Length of Visible Light 14h 14m
Length of Day
13h 17m
Waning Gibbous, 47% of the Moon is Illuminated
Aug 28
Waning Gibbous
Sep 5
New
Sep 12
First Quarter
Sep 19
Full
Sep 26
Last Quarter

Hourly Weather History & Observations

Time (CDT) Temp. Heat Index Dew Point Humidity Pressure Visibility Wind Dir Wind Speed Gust Speed Precip Events Conditions
12:15 AM 74.5 °F - 63.1 °F 68% 29.95 in 10.0 mi SE 3.5 mph - N/A   Clear
12:35 AM 74.3 °F - 62.6 °F 67% 29.95 in 10.0 mi SE 4.6 mph - N/A   Clear
12:55 AM 73.4 °F - 62.4 °F 68% 29.95 in 10.0 mi SE 3.5 mph - N/A   Clear
1:15 AM 72.9 °F - 62.1 °F 69% 29.95 in 10.0 mi Calm Calm - N/A   Clear
1:35 AM 71.1 °F - 62.2 °F 74% 29.96 in 10.0 mi SE 3.5 mph - N/A   Clear
1:55 AM 71.2 °F - 62.1 °F 73% 29.96 in 10.0 mi SSE 4.6 mph - N/A   Clear
2:15 AM 70.5 °F - 61.7 °F 74% 29.95 in 10.0 mi SSE 4.6 mph - N/A   Clear
2:35 AM 71.1 °F - 61.2 °F 71% 29.96 in 10.0 mi SE 3.5 mph - N/A   Clear
2:55 AM 70.9 °F - 61.0 °F 71% 29.96 in 10.0 mi South 5.8 mph - N/A   Clear
3:15 AM 69.1 °F - 61.2 °F 76% 29.96 in 10.0 mi SE 4.6 mph - N/A   Clear
3:35 AM 68.7 °F - 61.2 °F 77% 29.96 in 10.0 mi SSE 4.6 mph - N/A   Clear
3:55 AM 68.4 °F - 61.2 °F 78% 29.97 in 10.0 mi SSE 4.6 mph - N/A   Clear
4:15 AM 66.9 °F - 61.0 °F 81% 29.96 in 10.0 mi SSE 4.6 mph - N/A   Clear
4:35 AM 68.4 °F - 60.6 °F 76% 29.97 in 10.0 mi SSE 3.5 mph - N/A   Clear
4:55 AM 67.5 °F - 60.6 °F 79% 29.96 in 10.0 mi SSE 3.5 mph - N/A   Clear
5:15 AM 67.3 °F - 60.4 °F 79% 29.96 in 10.0 mi SSE 3.5 mph - N/A   Clear
5:35 AM 67.3 °F - 60.1 °F 78% 29.96 in 10.0 mi SE 3.5 mph - N/A   Clear
5:55 AM 66.2 °F - 60.1 °F 81% 29.96 in 10.0 mi SE 5.8 mph - N/A   Clear
6:15 AM 66.4 °F - 60.1 °F 80% 29.96 in 10.0 mi SE 4.6 mph - N/A   Clear
6:35 AM 66.7 °F - 59.9 °F 79% 29.97 in 10.0 mi SE 4.6 mph - N/A   Clear
6:55 AM 66.4 °F - 59.9 °F 80% 29.97 in 10.0 mi SE 4.6 mph - N/A   Clear
7:15 AM 66.6 °F - 60.1 °F 80% 29.97 in 10.0 mi SE 4.6 mph - N/A   Clear
7:35 AM 66.9 °F - 60.3 °F 79% 29.98 in 10.0 mi SSE 4.6 mph - N/A   Clear
7:55 AM 68.0 °F - 60.8 °F 78% 29.98 in 10.0 mi SE 4.6 mph - N/A   Clear
8:15 AM 68.9 °F - 61.5 °F 77% 29.99 in 10.0 mi SSE 3.5 mph - N/A   Clear
8:35 AM 70.5 °F - 62.1 °F 74% 29.99 in 10.0 mi South 4.6 mph - N/A   Clear
8:55 AM 71.4 °F - 62.1 °F 72% 30.00 in 10.0 mi Calm Calm - N/A   Clear
9:15 AM 73.0 °F - 63.7 °F 72% 30.00 in 10.0 mi SSE 4.6 mph - N/A   Clear
9:35 AM 74.7 °F - 64.0 °F 69% 30.00 in 10.0 mi SSW 4.6 mph - N/A   Clear
9:55 AM 76.1 °F - 64.0 °F 66% 30.00 in 10.0 mi South 5.8 mph - N/A   Clear
10:15 AM 77.9 °F - 64.6 °F 63% 30.01 in 10.0 mi South 3.5 mph - N/A   Clear
10:35 AM 79.2 °F - 64.6 °F 61% 30.01 in 10.0 mi South 3.5 mph - N/A   Clear
10:55 AM 80.8 °F 82.8 °F 65.7 °F 60% 30.01 in 10.0 mi SSW 3.5 mph - N/A   Clear
11:15 AM 82.0 °F 84.3 °F 66.4 °F 59% 30.01 in 10.0 mi SSW 5.8 mph - N/A   Clear
11:35 AM 82.6 °F 84.9 °F 66.6 °F 58% 30.02 in 10.0 mi South 5.8 mph - N/A   Clear
11:55 AM 83.3 °F 85.7 °F 66.6 °F 57% 30.02 in 10.0 mi SSE 3.5 mph - N/A   Clear
12:35 PM 85.1 °F 88.2 °F 67.8 °F 56% 30.02 in 10.0 mi South 4.6 mph - N/A   Clear
12:55 PM 86.2 °F 89.7 °F 68.4 °F 55% 30.01 in 10.0 mi South 8.1 mph - N/A   Clear
1:15 PM 87.1 °F 91.3 °F 69.1 °F 55% 30.01 in 10.0 mi South 9.2 mph - N/A   Clear
1:35 PM 88.2 °F 91.7 °F 68.2 °F 51% 30.01 in 10.0 mi South 6.9 mph - N/A   Clear
1:55 PM 88.3 °F 93.2 °F 70.0 °F 54% 30.01 in 10.0 mi South 8.1 mph - N/A   Clear
2:15 PM 88.0 °F 93.4 °F 70.7 °F 56% 30.00 in 10.0 mi SSE 9.2 mph - N/A   Clear
2:35 PM 88.7 °F 92.6 °F 68.5 °F 51% 30.00 in 10.0 mi South 13.8 mph 17.3 mph N/A   Clear
2:55 PM 89.4 °F 94.0 °F 69.1 °F 51% 30.00 in 10.0 mi South 9.2 mph - N/A   Clear
3:15 PM 88.7 °F 93.9 °F 70.0 °F 54% 30.00 in 10.0 mi South 8.1 mph - N/A   Clear
3:35 PM 88.7 °F 93.9 °F 70.0 °F 54% 30.00 in 10.0 mi South 9.2 mph - N/A   Clear
3:55 PM 88.7 °F 92.6 °F 68.2 °F 51% 30.00 in 10.0 mi South 5.8 mph - N/A   Clear
4:15 PM 88.5 °F 91.6 °F 66.9 °F 49% 30.00 in 10.0 mi South 8.1 mph - N/A   Clear
4:35 PM 87.8 °F 92.6 °F 69.6 °F 55% 30.00 in 10.0 mi South 6.9 mph - N/A   Clear
4:55 PM 88.9 °F 93.4 °F 69.1 °F 52% 30.00 in 10.0 mi South 8.1 mph - N/A   Clear
5:15 PM 88.7 °F 92.2 °F 68.0 °F 50% 29.99 in 10.0 mi South 6.9 mph - N/A   Clear
5:35 PM 88.7 °F 92.6 °F 68.5 °F 51% 29.99 in 10.0 mi South 5.8 mph - N/A   Clear
5:55 PM 87.1 °F 91.6 °F 69.4 °F 56% 29.99 in 10.0 mi South 5.8 mph - N/A   Clear
6:15 PM 85.6 °F 90.4 °F 70.2 °F 60% 29.99 in 10.0 mi SSE 5.8 mph - N/A   Clear
6:35 PM 85.5 °F 90.1 °F 70.2 °F 60% 29.99 in 10.0 mi South 5.8 mph - N/A   Clear
6:55 PM 83.5 °F 88.8 °F 71.8 °F 68% 29.99 in 10.0 mi SSE 4.6 mph - N/A   Clear
7:15 PM 82.4 °F 86.7 °F 70.9 °F 68% 29.99 in 10.0 mi SSE 4.6 mph - N/A   Clear
7:35 PM 81.3 °F 85.0 °F 70.2 °F 69% 29.99 in 10.0 mi SE 4.6 mph - N/A   Clear
7:55 PM 80.6 °F 83.9 °F 70.0 °F 70% 30.00 in 10.0 mi Calm Calm - N/A   Clear
8:15 PM 79.7 °F - 69.8 °F 72% 30.00 in 10.0 mi ESE 3.5 mph - N/A   Clear
8:35 PM 77.9 °F - 68.9 °F 74% 30.00 in 10.0 mi ESE 4.6 mph - N/A   Clear
8:55 PM 75.6 °F - 69.1 °F 80% 30.00 in 10.0 mi SE 3.5 mph - N/A   Clear
9:15 PM 74.8 °F - 69.3 °F 83% 30.01 in 10.0 mi Calm Calm - N/A   Clear
9:35 PM 73.6 °F - 68.7 °F 85% 30.01 in 10.0 mi SE 3.5 mph - N/A   Clear
9:55 PM 73.6 °F - 69.4 °F 87% 30.01 in 10.0 mi Calm Calm - N/A   Clear
10:15 PM 73.8 °F - 69.4 °F 86% 30.01 in 10.0 mi Calm Calm - N/A   Clear
10:35 PM 72.9 °F - 68.5 °F 86% 30.01 in 10.0 mi SE 6.9 mph - N/A   Clear
10:55 PM 73.4 °F - 68.2 °F 84% 30.01 in 10.0 mi Calm Calm - N/A   Clear
11:15 PM 72.5 °F - 67.6 °F 85% 30.02 in 10.0 mi Calm Calm - N/A   Clear
11:35 PM 71.2 °F - 66.6 °F 85% 30.02 in 10.0 mi SSE 4.6 mph - N/A   Clear
11:55 PM 73.4 °F - 64.9 °F 75% 30.02 in 10.0 mi ESE 4.6 mph - N/A   Clear